[[{"header":{"parameterUnit":"m.s-1","parameterCategory":1,"la1":30.2991,"la2":30.254,"lo1":-89.0895,"lo2":-89.0444,"dy":0.0017,"dx":0.0017,"nx":28,"ny":28,"refTime":"2025-07-09T09:00:00:Z","depth":0,"parameterNumber":2,"parameterNumberName":"U-component_of_WINDS"},"data":[0,0,0,0,0,0,0,0,0,0,0,0,0,0,0,0,0,0,0,0,0,0,0,0,0,0,0,0,0,0,0,0,0,0,0,0,0,0,0,0,0,0,0,0,0,0,0,0,0,0,0,0,0,0,0,0,0,0,4.1636,4.1637,0,4.1725,4.1726,4.1727,4.1634,4.163,4.1626,4.1623,4.1716,4.1722,4.1727,0,0,0,0,0,0,0,0,0,0,0,0,0,4.1385,4.139,4.1636,4.1637,4.1638,4.1725,4.1726,4.1727,4.1634,4.163,4.1625,4.1621,4.1714,4.1721,4.1728,0,0,0,0,0,0,0,0,0,0,0,0,0,4.1486,4.1392,4.1635,4.1602,4.16,4.1724,4.1726,4.1727,4.1635,4.163,4.1624,4.1619,4.1712,4.172,4.1729,4.1891,0,0,4.1756,4.176,0,0,0,0,0,0,0,0,4.148,4.1495,4.1606,4.1605,4.1602,4.1662,4.1671,4.1782,4.1637,4.1622,4.1623,4.1617,4.1703,4.1712,4.1741,4.1896,4.19,4.1757,4.1762,4.1766,4.1768,0,0,0,0,0,0,0,4.1473,4.1491,4.1671,4.1607,4.1605,4.1582,4.1591,4.1692,4.1692,4.1623,4.1616,4.1628,4.1701,4.1732,4.1742,4.1901,4.1756,4.1764,4.1769,4.1773,4.219,4.2195,0,0,0,0,0,0,4.147,4.1486,4.1668,4.1673,4.1527,4.1591,4.1601,4.1649,4.169,4.1691,4.1632,4.1623,4.172,4.1732,4.1745,4.1935,4.1766,4.1774,4.1779,4.2184,4.2191,4.2197,0,0,0,0,0,0,4.1465,4.1487,4.1664,4.1578,4.1599,4.1601,4.1656,4.1653,4.1685,4.1698,4.1697,4.1665,4.1716,4.1733,4.1855,4.1937,4.1778,4.1786,4.2177,4.2186,4.2194,4.2318,0,0,0,0,0,0,4.1458,4.1486,4.1548,4.158,4.1604,4.1773,4.1661,4.1659,4.17,4.1689,4.1728,4.1729,4.1713,4.1842,4.1863,4.1946,4.1793,4.217,4.2181,4.2192,4.2306,4.2329,4.2349,0,0,0,0,0,4.145,4.158,4.1552,4.1574,4.1681,4.1778,4.1792,4.177,4.1707,4.1769,4.1776,4.1728,4.1925,4.1855,4.1879,4.1965,4.2165,4.2178,4.2191,4.2296,4.2325,4.2349,0,0,0,0,0,0,4.156,4.1584,4.1552,4.1698,4.1736,4.1762,4.184,4.1802,4.186,4.1847,4.1819,4.1828,4.1957,4.1973,4.1896,4.2122,4.2034,4.2053,4.2107,4.2134,4.2155,4.2147,4.18,0,0,0,0,0,4.1601,4.1677,4.1695,4.1821,4.1842,4.1838,4.1879,4.1859,4.1898,4.1914,4.1931,4.1972,4.2042,4.2089,4.2155,4.2309,4.2314,4.2379,4.2401,4.2418,4.2434,4.2513,4.2541,4.2241,4.224,4.224,0,0,4.1686,4.1709,4.1759,4.1843,4.1871,4.195,4.1852,4.1941,4.1999,4.1928,4.2043,4.2057,4.21,4.2237,4.2299,4.2255,4.2518,4.2435,4.2449,4.2455,4.2529,4.2558,4.2583,4.2249,4.2248,4.2246,0,0,4.1882,4.1908,4.2014,4.2044,4.2086,4.2082,4.2108,4.2139,4.2145,4.226,4.2207,4.2276,4.2399,4.243,4.2463,4.2668,4.2624,4.269,4.2802,4.288,4.2903,4.2924,4.2994,4.302,4.2706,4.2707,4.2707,0,4.1983,4.21,4.2074,4.2166,4.2203,4.2141,4.2247,4.2277,4.234,4.2367,4.2317,4.2467,4.2492,4.2634,4.2684,4.2713,4.274,4.2685,4.2902,4.2923,4.2942,4.3008,4.3035,4.2714,4.2713,4.2712,4.2712,0,4.2221,4.2303,4.2384,4.2443,4.249,4.2589,4.2577,4.2627,4.2603,4.2604,4.272,4.2747,4.2816,4.2849,4.2827,4.2988,4.2958,4.2906,4.2817,4.2978,4.304,4.3066,4.2725,4.2722,4.272,4.2718,0,0,4.2489,4.2531,4.2561,4.2585,4.2627,4.2689,4.2785,4.285,4.2893,4.2938,4.3015,4.3119,4.307,4.3107,4.3088,4.3156,4.3312,4.3094,4.3095,4.3132,4.3488,4.3525,4.3555,4.3284,4.3289,4.3293,4.3483,0,4.2684,4.2847,4.2825,4.2983,4.3056,4.2997,4.308,4.3114,4.3117,4.3179,4.3183,4.3256,4.3187,4.3208,4.3273,4.328,4.3383,4.3266,4.3355,4.3358,4.3343,4.3588,4.3628,4.3806,4.3507,4.3511,4.3514,0,4.2933,4.2984,4.3148,4.3174,4.3204,4.3279,4.3335,4.3397,4.3433,4.343,4.347,4.3438,4.3532,4.3442,4.3569,4.349,4.3525,4.3534,4.354,4.3546,4.3445,4.3598,4.3863,4.3889,4.3553,4.355,4.3547,0,4.3108,4.3218,4.3329,4.3353,4.3388,4.3441,4.3458,4.3489,4.3529,4.3579,4.3604,4.3665,4.3698,4.3746,4.373,4.3667,4.386,4.377,4.3859,4.386,4.3901,4.3899,4.4173,4.3929,4.3928,4.3928,4.3927,0,4.3326,4.3428,4.3408,4.3477,4.3588,4.3562,4.3673,4.3683,4.371,4.3779,4.3733,4.3798,4.3775,4.3839,4.3828,4.3933,4.395,4.3949,4.3944,4.3952,4.3951,4.3973,4.3959,4.3935,4.3933,4.3932,4.3931,0,4.354,4.3532,4.3648,4.3671,4.3678,4.376,4.3778,4.3842,4.384,4.3927,4.3946,4.3945,4.4017,4.4006,4.4088,4.408,4.4211,4.4193,4.4198,4.4193,4.4282,4.4273,4.4578,4.4616,4.4349,4.4352,4.4354,0,4.3679,4.3756,4.3785,4.3827,4.3847,4.3916,4.3955,4.3932,4.3975,4.402,4.4078,4.4146,4.4199,4.4317,4.4323,4.4384,4.4365,4.4468,4.4374,4.4378,4.4363,4.4358,4.4364,4.4486,4.4489,4.4491,4.4493,0,4.3925,4.3916,4.3975,4.4031,4.4079,4.4123,4.4163,4.42,4.418,4.423,4.4302,4.4343,4.4424,4.4492,4.4548,4.4565,4.4526,4.4523,4.4546,4.4553,4.4552,4.4551,4.4246,4.4516,4.4513,4.4512,4.4511,4.451,4.4104,4.4168,4.4197,4.4263,4.429,4.4327,4.4386,4.4392,4.4451,4.4514,4.4497,4.4579,4.461,4.4682,4.4705,4.4768,4.473,4.4765,4.4773,4.4781,4.479,4.4544,4.4779,4.4778,4.4777,4.4777,4.4776,0,4.4345,4.436,4.4421,4.4476,4.4528,4.4485,4.4526,4.4571,4.4643,4.4676,4.4728,4.4809,4.4874,4.4884,4.4944,4.4992,4.4976,4.5009,4.5004,4.5008,4.4822,4.4795,4.5021,4.5021,4.5021,4.5021,4.5021,4.5021,4.4476,4.4581,4.4575,4.4692,4.4706,4.4785,4.4811,4.4844,4.4869,4.4962,4.5015,4.502,4.5043,4.5105,4.5161,4.5162,4.5186,4.5226,4.522,4.5046,4.5021,4.4998,4.4972,4.5232,4.5232,4.5399,4.5401,4.5402]},{"header":{"parameterUnit":"m.s-1","parameterCategory":1,"la1":30.2991,"la2":30.254,"lo1":-89.0895,"lo2":-89.0444,"dy":0.0017,"dx":0.0017,"nx":28,"ny":28,"refTime":"2025-07-09T09:00:00:Z","depth":0,"parameterNumber":3,"parameterNumberName":"V-component_of_WINDS"},"data":[0,0,0,0,0,0,0,0,0,0,0,0,0,0,0,0,0,0,0,0,0,0,0,0,0,0,0,0,0,0,0,0,0,0,0,0,0,0,0,0,0,0,0,0,0,0,0,0,0,0,0,0,0,0,0,0,0,0,0.428,0.428,0,0.4264,0.4264,0.4264,0.4242,0.4242,0.4241,0.4241,0.4228,0.4228,0.4227,0,0,0,0,0,0,0,0,0,0,0,0,0,0.4293,0.4293,0.428,0.428,0.428,0.4265,0.4264,0.4264,0.4242,0.4242,0.4241,0.4241,0.4228,0.4228,0.4227,0,0,0,0,0,0,0,0,0,0,0,0,0,0.4283,0.4293,0.428,0.4267,0.4266,0.4265,0.4264,0.4264,0.4242,0.4242,0.4241,0.4241,0.4228,0.4228,0.4227,0.4239,0,0,0.4227,0.4227,0,0,0,0,0,0,0,0,0.4284,0.4283,0.4269,0.4268,0.4266,0.4255,0.4264,0.4256,0.4243,0.4251,0.4241,0.424,0.4237,0.4236,0.4235,0.4238,0.4238,0.4227,0.4227,0.4227,0.4227,0,0,0,0,0,0,0,0.4285,0.4284,0.4274,0.4269,0.4267,0.4262,0.426,0.4262,0.4248,0.4251,0.4249,0.4247,0.4236,0.4235,0.4234,0.4237,0.4227,0.4227,0.4227,0.4227,0.4248,0.4249,0,0,0,0,0,0,0.4287,0.4284,0.4275,0.4274,0.4274,0.4263,0.426,0.4259,0.4248,0.4245,0.4248,0.4246,0.4235,0.4234,0.4234,0.4246,0.4227,0.4227,0.4227,0.4248,0.4249,0.4249,0,0,0,0,0,0,0.4287,0.4286,0.4275,0.4278,0.4277,0.4263,0.4262,0.4259,0.4257,0.4245,0.4243,0.4249,0.4235,0.4234,0.4237,0.4245,0.4227,0.4227,0.4247,0.4248,0.4249,0.427,0,0,0,0,0,0,0.4288,0.4287,0.4291,0.4279,0.4277,0.4279,0.4262,0.4259,0.4257,0.4255,0.4246,0.4244,0.4234,0.4237,0.4237,0.4245,0.4227,0.4247,0.4248,0.4249,0.4269,0.4272,0.4274,0,0,0,0,0,0.4288,0.4298,0.4291,0.429,0.4281,0.4279,0.4278,0.4266,0.4258,0.4262,0.4254,0.4244,0.4244,0.4238,0.4238,0.4245,0.4246,0.4247,0.4249,0.4268,0.4271,0.4274,0,0,0,0,0,0,0.4313,0.4296,0.4288,0.4294,0.4288,0.4276,0.428,0.4271,0.4268,0.4266,0.4252,0.425,0.4255,0.425,0.4244,0.4255,0.4243,0.4245,0.4258,0.4261,0.4264,0.4265,0.4227,0,0,0,0,0,0.4318,0.4317,0.4304,0.431,0.4307,0.4294,0.4293,0.4284,0.4278,0.4276,0.4268,0.4263,0.4261,0.4261,0.4259,0.4268,0.4265,0.4273,0.4275,0.4278,0.4279,0.4283,0.4286,0.4253,0.4253,0.4253,0,0,0.4331,0.4322,0.4322,0.4315,0.4309,0.4309,0.4293,0.4293,0.4293,0.4276,0.4279,0.4273,0.4266,0.4272,0.4274,0.4268,0.4287,0.4279,0.4281,0.4281,0.4284,0.4288,0.429,0.4254,0.4254,0.4254,0,0,0.4353,0.4346,0.4351,0.4345,0.4336,0.4327,0.4328,0.4316,0.4311,0.4314,0.43,0.43,0.4299,0.4294,0.4291,0.4311,0.4301,0.431,0.4325,0.4329,0.4331,0.4333,0.434,0.4343,0.4312,0.4312,0.4312,0,0.437,0.4369,0.4354,0.4356,0.4353,0.4335,0.434,0.4335,0.4327,0.4325,0.4318,0.4315,0.4309,0.4313,0.4318,0.4316,0.4317,0.4312,0.4332,0.4334,0.4336,0.4342,0.4345,0.4313,0.4313,0.4313,0.4313,0,0.439,0.4389,0.4394,0.4385,0.4382,0.4385,0.4371,0.437,0.4361,0.4353,0.4355,0.4348,0.4344,0.4344,0.4336,0.4347,0.4343,0.4334,0.4322,0.434,0.4346,0.4348,0.4315,0.4314,0.4314,0.4314,0,0,0.4429,0.441,0.4412,0.4407,0.4395,0.4395,0.4397,0.4392,0.4391,0.4385,0.4387,0.4385,0.4376,0.4373,0.4364,0.4367,0.4383,0.4358,0.4357,0.4363,0.4395,0.4402,0.4405,0.4376,0.4376,0.4377,0.4395,0,0.4449,0.4451,0.4437,0.4443,0.4442,0.4425,0.4426,0.4419,0.4411,0.441,0.4401,0.44,0.4389,0.4387,0.4389,0.4381,0.4389,0.4379,0.4378,0.4378,0.4381,0.4408,0.4416,0.4433,0.4397,0.4398,0.4398,0,0.4474,0.4468,0.4473,0.446,0.4459,0.4461,0.4454,0.4453,0.4444,0.4438,0.4434,0.4423,0.4425,0.4413,0.4414,0.4408,0.4406,0.4402,0.4402,0.4402,0.439,0.4409,0.4439,0.4442,0.4401,0.4401,0.4401,0,0.4502,0.4495,0.4497,0.4493,0.4478,0.4479,0.4473,0.4464,0.4462,0.4456,0.4455,0.445,0.4448,0.4444,0.4433,0.4425,0.4436,0.4423,0.4431,0.4431,0.4435,0.4435,0.4465,0.4433,0.4433,0.4433,0.4433,0,0.4526,0.453,0.4509,0.451,0.4514,0.4498,0.4502,0.4495,0.4486,0.4486,0.4471,0.4472,0.4455,0.4454,0.4445,0.4447,0.4446,0.4442,0.444,0.4444,0.4444,0.4443,0.4442,0.4434,0.4434,0.4434,0.4433,0,0.4559,0.4544,0.4545,0.453,0.4526,0.453,0.4517,0.4518,0.4508,0.4508,0.4507,0.4492,0.449,0.4477,0.4472,0.4466,0.4472,0.4467,0.4474,0.4473,0.4482,0.4481,0.4513,0.4516,0.4482,0.4482,0.4483,0,0.4576,0.4578,0.4562,0.456,0.4554,0.4552,0.4549,0.4533,0.453,0.452,0.4522,0.4518,0.4514,0.4511,0.45,0.4496,0.4491,0.4502,0.449,0.4494,0.4491,0.4491,0.4491,0.4505,0.4505,0.4506,0.4506,0,0.4607,0.46,0.4595,0.4588,0.4584,0.4578,0.4571,0.4571,0.4553,0.4551,0.4548,0.4544,0.4538,0.4534,0.4528,0.4522,0.4512,0.451,0.4511,0.4516,0.452,0.4518,0.4482,0.4509,0.4509,0.4509,0.4508,0.4508,0.4632,0.4633,0.4622,0.4617,0.461,0.4604,0.4603,0.4593,0.4589,0.4582,0.4573,0.4571,0.4562,0.4552,0.4547,0.4545,0.4539,0.4541,0.4542,0.4543,0.4545,0.452,0.4544,0.4543,0.4543,0.4543,0.4543,0,0.4663,0.4655,0.465,0.464,0.4637,0.4625,0.4617,0.4615,0.4612,0.4604,0.46,0.4595,0.4591,0.458,0.4574,0.4575,0.457,0.4574,0.4574,0.4573,0.4551,0.455,0.4578,0.4578,0.4578,0.4578,0.4578,0.4578,0.4679,0.4679,0.467,0.4667,0.4659,0.4655,0.4651,0.4645,0.4639,0.4634,0.463,0.4622,0.4612,0.4606,0.4602,0.4599,0.4598,0.4604,0.4599,0.4578,0.4575,0.4572,0.4571,0.4603,0.4603,0.4622,0.4622,0.4622]}]]